Location: Unspecified
(48.5670°N, 0.0000°E)
Time: 20:34:21
(UTC+00:00)

A-11 Canister half - All Passes

Search period start: 17 July 2019 00:00
Search period end: 27 July 2019 00:00
Orbit: 1526 x 1683 km, 47.3° (Epoch: 17 July)

Date Brightness Start Highest point End Pass type
(mag) Time Alt. Az. Time Alt. Az. Time Alt. Az.
17 Jul - 02:04:11 10° W 02:13:52 74° SSW 02:23:14 10° ESE visible
17 Jul - 04:09:28 10° WNW 04:18:00 39° SW 04:26:21 10° SSE daylight
17 Jul - 06:19:37 10° WSW 06:20:43 10° WSW 06:21:49 10° SW daylight
17 Jul - 19:32:42 10° S 19:39:13 20° SE 19:45:37 10° E daylight
17 Jul - 21:33:05 10° SW 21:42:38 52° SSE 21:51:53 10° ENE visible
17 Jul - 23:37:20 10° WSW 23:47:15 82° S 23:56:50 10° E visible
18 Jul - 01:42:32 10° W 01:52:15 76° SSW 02:01:39 10° ESE visible
18 Jul - 03:47:47 10° WNW 03:56:27 40° SW 04:04:53 10° SSE daylight
18 Jul - 05:56:43 10° WSW 05:59:13 11° WSW 06:01:42 10° SW daylight
18 Jul - 19:11:26 10° SSE 19:17:40 19° SE 19:23:49 10° E daylight
18 Jul - 21:11:32 10° SW 21:21:02 51° SSE 21:30:16 10° ENE visible
18 Jul - 23:15:41 10° WSW 23:25:37 81° S 23:35:13 10° E visible
19 Jul - 01:20:52 10° W 01:30:38 77° SSW 01:40:03 10° ESE visible
19 Jul - 03:26:06 10° WNW 03:34:53 42° SW 03:43:25 10° SSE visible
19 Jul - 05:34:23 10° WSW 05:37:43 12° WSW 05:41:02 10° SW daylight
19 Jul - 18:50:12 10° SSE 18:56:08 18° SE 19:01:58 10° E daylight
19 Jul - 20:49:57 10° SW 20:59:25 49° SSE 21:08:38 10° ENE visible
19 Jul - 22:54:01 10° WSW 23:03:58 80° S 23:13:37 10° E visible
20 Jul - 00:59:12 10° W 01:09:00 78° SSW 01:18:28 10° ESE visible
20 Jul - 03:04:26 10° WNW 03:13:19 44° SW 03:21:57 10° SSE visible
20 Jul - 05:12:14 10° W 05:16:13 13° WSW 05:20:10 10° SSW daylight
20 Jul - 18:29:00 10° SSE 18:34:35 17° SE 18:40:06 10° E daylight
20 Jul - 20:28:25 10° SW 20:37:49 47° SE 20:47:00 10° ENE visible
20 Jul - 22:32:21 10° WSW 22:42:21 79° SSE 22:51:59 10° E visible
21 Jul - 00:37:32 10° W 00:47:23 79° SSW 00:56:52 10° ESE visible
21 Jul - 02:42:45 10° WNW 02:51:44 45° SW 03:00:28 10° SSE visible
21 Jul - 04:50:12 10° W 04:54:43 14° SW 04:59:11 10° SSW daylight
21 Jul - 18:07:51 10° SSE 18:13:03 15° SE 18:18:11 10° E daylight
21 Jul - 20:06:52 10° SSW 20:16:13 46° SE 20:25:22 10° ENE daylight
21 Jul - 22:10:42 10° WSW 22:20:42 79° SSE 22:30:22 10° E visible
22 Jul - 00:15:53 10° W 00:25:45 80° SSW 00:35:16 10° ESE visible
22 Jul - 02:21:05 10° WNW 02:30:10 47° SW 02:38:58 10° SE visible
22 Jul - 04:28:14 10° W 04:33:13 16° SW 04:38:08 10° SSW daylight
22 Jul - 17:46:46 10° SSE 17:51:31 14° SE 17:56:14 10° E daylight
22 Jul - 19:45:19 10° SSW 19:54:37 44° SE 20:03:43 10° ENE daylight
22 Jul - 21:49:02 10° WSW 21:59:03 78° SSE 22:08:44 10° E visible
22 Jul - 23:54:12 10° W 00:04:07 81° S 00:13:40 10° ESE visible
23 Jul - 01:59:25 10° WNW 02:08:35 49° SW 02:17:29 10° SE visible
23 Jul - 04:06:18 10° W 04:11:41 17° SW 04:17:01 10° SSW daylight
23 Jul - 17:25:45 10° SSE 17:29:59 13° ESE 17:34:12 10° E daylight
23 Jul - 19:23:47 10° SSW 19:33:02 43° SE 19:42:04 10° ENE daylight
23 Jul - 21:27:23 10° WSW 21:37:25 77° SSE 21:47:08 10° E visible
23 Jul - 23:32:32 10° W 23:42:29 81° S 23:52:04 10° ESE visible
24 Jul - 01:37:44 10° WNW 01:47:00 50° SSW 01:55:58 10° SE visible
24 Jul - 03:44:25 10° W 03:50:11 18° SW 03:55:52 10° SSW visible
24 Jul - 17:04:51 10° SE 17:08:28 12° ESE 17:12:03 10° E daylight
24 Jul - 19:02:16 10° SSW 19:11:26 41° SE 19:20:25 10° ENE daylight
24 Jul - 21:05:45 10° WSW 21:15:47 76° SSE 21:25:31 10° E visible
24 Jul - 23:10:52 10° W 23:20:50 82° S 23:30:27 10° ESE visible
25 Jul - 01:16:05 10° WNW 01:25:26 52° SSW 01:34:27 10° SE visible
25 Jul - 03:22:34 10° W 03:28:40 19° SW 03:34:40 10° SSW visible
25 Jul - 16:44:07 10° SE 16:46:56 11° ESE 16:49:45 10° ESE daylight
25 Jul - 18:40:45 10° SSW 18:49:50 40° SE 18:58:46 10° ENE daylight
25 Jul - 20:44:05 10° WSW 20:54:08 74° SSE 21:03:53 10° E visible
25 Jul - 22:49:11 10° W 22:59:11 83° S 23:08:50 10° ESE visible
26 Jul - 00:54:24 10° WNW 01:03:50 54° SSW 01:12:56 10° SE visible
26 Jul - 03:00:44 10° W 03:07:08 20° SW 03:13:26 10° S visible
26 Jul - 16:23:48 10° SE 16:25:25 10° ESE 16:27:02 10° ESE daylight
26 Jul - 18:19:15 10° SSW 18:28:15 38° SE 18:37:06 10° ENE daylight
26 Jul - 20:22:27 10° WSW 20:32:30 73° SSE 20:42:16 10° E visible
26 Jul - 22:27:31 10° W 22:37:33 83° S 22:47:14 10° E visible
